Погода в Козлово

Россия / Калужская область     54°53′21″N   36°25′23″E
темп.,
°C
ветер,
м/с
пор.,
м/с
влажн.,
%
обл.,
%
осадки,
мм/ч
давл.,
гПа
погр.,
м
1 августа, вс
вс100:00+16юз237678 0.0 101052
03:00+15юз228286 0.0 101117
06:00+15ююз237993 0.0 101163
09:00+22ю3556100 0.0 1011395
12:00+24юз2557100 0.3 10111021
15:00+25зсз4862100 1.0 10101360
18:00+22зюз2578100 2.1 1009297
21:00+20ю228520 2.1 100938
2 августа, пн
пн200:00+18юз229371 0.2 101024
03:00+17ю1195100 0.6 100911
06:00+18ююв119529 0.4 100915
09:00+22ююв247889 0.9 1008436
12:00+28ю4751100 0.0 10061235
15:00+28ююз4954100 0.0 1004985
18:00+28ююз385479 0.0 1002565
21:00+23ю41278100 0.6 1001325
3 августа, вт
вт300:00+17ю41096100 4.0 1003309
03:00+16ююз5129772 4.0 1003444
06:00+16зюз4994100 0.0 1004607
09:00+17зюз3796100 0.4 1006491
12:00+16зсз5995100 1.1 1008611
15:00+19з367511 1.3 1009914
18:00+18з488867 1.6 1010646
21:00+15зюз22947 2.1 101119
4 августа, ср
ср400:00+13зюз239246 0.0 101249
03:00+14з259169 0.0 1014118
06:00+13з23918 0.0 101579
09:00+18з35692 0.0 1015540
12:00+21з345921 0.4 10151435
15:00+23зюз4451100 1.0 10161712
18:00+20сз1377100 1.8 1016332
21:00+16зюз0189100 4.1 101711
5 августа, чт
чт500:00+14ююз00934 0.8 101810
03:00+13в0195100 0.9 101810
06:00+14юв119673 0.0 101834
09:00+18ю2282100 0.0 1018405
12:00+22ююз1359100 0.0 1018969
15:00+23ю3448100 0.0 10171634
18:00+19в2263100 0.0 101622
21:00+15ю1195100 1.1 101623